Warning: Javascript must be enabled to use all the features on this page!


Page Loading - Please Wait...

Click to hideNews Bulletins

Peak Streamflow for the Nation

USGS 11058600 WATERMAN CANYON CREEK NR ARROWHEAD SPRINGS CA

San Bernardino County, California
Hydrologic Unit Code 18070203
Latitude  34°11'09", Longitude 117°16'20" NAD83
Drainage area 4.82  square miles
Gage datum 1,840 feet above NGVD29
Output formats
Table
Graph
Tab-separated file
peakfq (watstore) format
Reselect output format
Water
Year
Date Gage
Height
(feet)
Stream-
flow
(cfs)
1912 1912-03-10   57.01
1913 1913-02-25   43.01
1914 1914-02-21   1751
1920 1920-02-22 2.44 76.0
1921 1921-03-14 2.95 152
1922 1922-01-02 3.43 250
1923 1922-12-14 2.06 52.0
1924 1924-03-26 3.28 36.0
1925 1924-11-10 2.55 12.0
1926 1926-04-07 3.40 44.0
1927 1927-02-16 4.00 110
1928 1928-02-04 3.08 39.0
1929 1929-02-02   20.01
1930 1930-05-03 3.40 17.0
1931 1931-04-26 3.50 50.0
1932 1932-02-09   60.01
1933 1933-01-16 2.95 22.0
1934 1933-12-31 3.32 114
1935 1934-12-14 3.86 73.0
1936 1936-02-02 4.15 182
1937 1937-02-06 4.10 390
1938 1938-03-02   2,3502
1939 1939-09-25 2.90 205
1940 1940-01-07 2.80 122
1941 1941-02-20   190
1942 1941-12-10 2.28 41.0
1943 1943-01-23 4.50 620
1944 1944-02-22 3.40 185
1945 1945-02-02 3.71 278
1946 1945-12-23 3.58 240
1947 1946-11-20 3.40 185
1948 1948-04-03 3.18 126
1949 1949-02-26 2.55 19.0
1950 1949-12-19 3.02 105
1951 1951-04-28 2.73 34.0
1952 1952-01-16 3.17 115
1954 1954-02-13 3.17 108
1955 1954-11-11 3.67 296
1956 1956-01-26 3.64 296
1957 1957-05-19 3.13 90.0
1958 1958-04-03 3.45 199
1959 1959-02-16 2.98 75.0
1960 1960-02-08 2.49 16.0
1961 1960-11-06 2.51 23.0
1962 1962-01-20 2.83 62.0
1963 1963-09-18 3.18 128
1964 1964-04-01 2.73 46.0
1965 1965-04-09 3.08 84.0
1966 1965-12-29 5.06 876
1967 1966-12-06 4.82 755
1968 1968-03-08 3.55 235
1969 1969-01-25 5.53 1,160
1970 1969-11-07 2.60 38.0
1971 1970-11-29 4.50 585
1972 1971-12-25 3.37 172
1973 1973-02-11 3.72 276
1974 1974-01-07 2.48 44.0
1975 1974-12-04 2.58 29.0
1976 1976-09-11 4.32 554
1977 1976-10-22 2.86 86.0
1978 1978-03-04 5.05 870
1979 1979-03-27 3.32 201
1980 1980-01-29 5.03 925
1981 1981-04-18 4.23 461
1982 1982-04-01 2.97 94.0
1983 1983-02-27 3.47 197
1984 1983-12-25 3.08 112
1985 1985-03-28 2.97 89.0
2008 2008-01-05 2.85 128
2009 2009-02-16 2.17 31.0
2010 2010-02-06 2.84 126
2011 2010-12-19 2.81 122
2012 2011-10-05 2.24 37.0
2013 2012-12-13 2.07 22.0
2014 2013-11-21 2.63 88.0
2015 2014-12-04 2.24 38.0
2016 2016-01-06 2.32 45.0
2017 2017-01-22 3.21 207
2018 2018-03-15 2.23 24.2
2019 2019-02-14 3.87 339
2020 2020-04-06 2.23 35.5
?
  Peak Streamflow Qualification Codes.